TimeEST,TemperatureF,Dew PointF,Humidity,Sea Level PressureIn,VisibilityMPH,Wind Direction,Wind SpeedMPH,Gust SpeedMPH,PrecipitationIn,Events,Conditions,WindDirDegrees,DateUTC
12:15 AM,24.8,19.4,80,30.14,10.0,WSW,5.8,-,N/A,,Mostly Cloudy,240,2013-02-04 05:15:00
12:35 AM,23.0,17.6,80,30.14,10.0,WSW,5.8,-,N/A,,Mostly Cloudy,240,2013-02-04 05:35:00
12:55 AM,23.0,17.6,80,30.14,10.0,WSW,4.6,-,N/A,,Scattered Clouds,250,2013-02-04 05:55:00
1:15 AM,23.0,17.6,80,30.14,10.0,WSW,5.8,-,N/A,,Mostly Cloudy,240,2013-02-04 06:15:00
1:35 AM,21.2,17.6,86,30.14,10.0,WSW,5.8,-,N/A,,Scattered Clouds,250,2013-02-04 06:35:00
1:55 AM,21.2,17.6,86,30.14,10.0,WSW,3.5,-,N/A,,Scattered Clouds,240,2013-02-04 06:55:00
2:15 AM,21.2,17.6,86,30.14,10.0,West,4.6,-,N/A,,Scattered Clouds,260,2013-02-04 07:15:00
2:55 AM,21.2,15.8,80,30.13,10.0,Calm,Calm,-,N/A,,Clear,0,2013-02-04 07:55:00
3:15 AM,19.4,14.0,80,30.13,10.0,Calm,Calm,-,N/A,,Clear,0,2013-02-04 08:15:00
3:35 AM,17.6,14.0,86,30.13,10.0,Calm,Calm,-,N/A,,Scattered Clouds,0,2013-02-04 08:35:00
3:55 AM,15.8,14.0,93,30.13,10.0,Calm,Calm,-,N/A,,Scattered Clouds,0,2013-02-04 08:55:00
4:15 AM,17.6,14.0,86,30.13,10.0,Calm,Calm,-,N/A,,Mostly Cloudy,0,2013-02-04 09:15:00
6:15 AM,19.4,17.6,93,30.13,10.0,Calm,Calm,-,N/A,,Overcast,0,2013-02-04 11:15:00
6:35 AM,19.4,17.6,93,30.13,10.0,Calm,Calm,-,N/A,,Overcast,0,2013-02-04 11:35:00
6:55 AM,19.4,17.6,93,30.13,10.0,Calm,Calm,-,N/A,,Overcast,0,2013-02-04 11:55:00
7:15 AM,19.4,15.8,86,30.12,10.0,ENE,3.5,-,N/A,,Scattered Clouds,60,2013-02-04 12:15:00
7:35 AM,17.6,15.8,93,30.13,10.0,Calm,Calm,-,N/A,,Scattered Clouds,0,2013-02-04 12:35:00
7:55 AM,17.6,14.0,86,30.13,7.0,Calm,Calm,-,N/A,,Clear,0,2013-02-04 12:55:00
8:15 AM,19.4,17.6,93,30.13,10.0,Calm,Calm,-,N/A,,Clear,0,2013-02-04 13:15:00
8:55 AM,23.0,17.6,80,30.12,10.0,SSE,3.5,-,N/A,,Clear,150,2013-02-04 13:55:00
9:15 AM,23.0,19.4,86,30.11,10.0,Calm,Calm,-,N/A,,Clear,0,2013-02-04 14:15:00
9:35 AM,24.8,19.4,80,30.10,10.0,South,3.5,-,N/A,,Clear,190,2013-02-04 14:35:00
9:55 AM,26.6,19.4,74,30.07,10.0,SSE,5.8,-,N/A,,Clear,150,2013-02-04 14:55:00
10:15 AM,26.6,19.4,74,30.06,10.0,SSE,4.6,-,N/A,,Clear,160,2013-02-04 15:15:00
10:35 AM,28.4,19.4,69,30.05,10.0,South,10.4,16.1,N/A,,Clear,180,2013-02-04 15:35:00
10:55 AM,28.4,19.4,69,30.04,10.0,SSE,9.2,16.1,N/A,,Clear,160,2013-02-04 15:55:00
11:15 AM,30.2,19.4,64,30.04,10.0,South,5.8,-,N/A,,Clear,190,2013-02-04 16:15:00
11:35 AM,30.2,19.4,64,30.03,10.0,South,3.5,-,N/A,,Clear,180,2013-02-04 16:35:00
11:55 AM,30.2,21.2,69,30.02,10.0,South,5.8,-,N/A,,Clear,190,2013-02-04 16:55:00
12:15 PM,30.2,21.2,69,30.01,10.0,SW,3.5,-,N/A,,Clear,220,2013-02-04 17:15:00
12:35 PM,30.2,21.2,69,29.99,10.0,South,5.8,-,N/A,,Scattered Clouds,180,2013-02-04 17:35:00
12:55 PM,30.2,21.2,69,29.97,10.0,South,5.8,-,N/A,,Scattered Clouds,180,2013-02-04 17:55:00
1:35 PM,32.0,21.2,64,29.96,10.0,South,5.8,-,N/A,,Clear,190,2013-02-04 18:35:00
1:55 PM,32.0,21.2,64,29.94,10.0,SSW,4.6,-,N/A,,Scattered Clouds,200,2013-02-04 18:55:00
2:15 PM,32.0,23.0,69,29.93,4.0,ESE,3.5,-,N/A,Snow,Light Snow,120,2013-02-04 19:15:00
2:35 PM,32.0,23.0,69,29.91,10.0,ESE,3.5,-,N/A,,Scattered Clouds,110,2013-02-04 19:35:00
2:55 PM,32.0,23.0,69,29.91,10.0,Calm,Calm,-,N/A,,Clear,0,2013-02-04 19:55:00
3:15 PM,32.0,23.0,69,29.91,10.0,Calm,Calm,-,N/A,,Clear,0,2013-02-04 20:15:00
3:35 PM,33.8,23.0,65,29.91,10.0,Calm,Calm,-,N/A,,Clear,0,2013-02-04 20:35:00
3:55 PM,33.8,23.0,65,29.90,10.0,East,3.5,-,N/A,,Clear,90,2013-02-04 20:55:00
4:15 PM,33.8,23.0,65,29.90,10.0,Calm,Calm,-,N/A,,Clear,0,2013-02-04 21:15:00
4:35 PM,32.0,23.0,69,29.90,4.0,Calm,Calm,-,N/A,Snow,Light Snow,0,2013-02-04 21:35:00
4:55 PM,32.0,28.4,87,29.90,1.2,Calm,Calm,-,N/A,Snow,Light Snow,0,2013-02-04 21:55:00
5:15 PM,32.0,28.4,87,29.88,0.8,Calm,Calm,-,N/A,Snow,Light Snow,0,2013-02-04 22:15:00
5:35 PM,32.0,30.2,93,29.89,7.0,Calm,Calm,-,N/A,,Mostly Cloudy,0,2013-02-04 22:35:00
5:55 PM,32.0,30.2,93,29.89,1.2,SW,4.6,-,N/A,Snow,Light Snow,230,2013-02-04 22:55:00
6:15 PM,32.0,30.2,93,29.90,1.2,Calm,Calm,-,N/A,Snow,Light Snow,0,2013-02-04 23:15:00
6:35 PM,32.0,30.2,93,29.90,1.2,SW,3.5,-,N/A,Snow,Light Snow,220,2013-02-04 23:35:00
6:55 PM,32.0,32.0,100,29.90,1.8,SW,3.5,-,N/A,Snow,Light Snow,220,2013-02-04 23:55:00
7:15 PM,32.0,32.0,100,29.90,2.0,SW,6.9,-,N/A,Snow,Light Snow,220,2013-02-05 00:15:00
7:35 PM,32.0,32.0,100,29.90,3.0,SW,5.8,-,N/A,Snow,Light Snow,220,2013-02-05 00:35:00
7:55 PM,32.0,32.0,100,29.91,2.5,SW,6.9,-,N/A,Snow,Light Snow,220,2013-02-05 00:55:00
8:15 PM,32.0,32.0,100,29.91,4.0,SW,6.9,-,N/A,Snow,Light Snow,220,2013-02-05 01:15:00
8:35 PM,32.0,32.0,100,29.91,5.0,SSW,6.9,-,N/A,,Overcast,210,2013-02-05 01:35:00
8:55 PM,32.0,32.0,100,29.90,7.0,SSW,6.9,-,N/A,,Overcast,210,2013-02-05 01:55:00
9:15 PM,32.0,32.0,100,29.90,7.0,SSW,5.8,-,N/A,,Overcast,200,2013-02-05 02:15:00
9:35 PM,32.0,32.0,100,29.90,3.0,SSW,4.6,-,N/A,,Light Drizzle,200,2013-02-05 02:35:00
9:55 PM,32.0,32.0,100,29.90,5.0,SW,4.6,-,N/A,,Overcast,220,2013-02-05 02:55:00
10:15 PM,33.8,32.0,93,29.89,10.0,SSW,3.5,-,N/A,,Overcast,210,2013-02-05 03:15:00
10:35 PM,33.8,32.0,93,29.89,10.0,SSW,3.5,-,N/A,,Overcast,210,2013-02-05 03:35:00
10:55 PM,33.8,32.0,93,29.89,10.0,SSW,3.5,-,N/A,,Overcast,210,2013-02-05 03:55:00
11:15 PM,33.8,32.0,93,29.88,10.0,Calm,Calm,-,N/A,,Overcast,0,2013-02-05 04:15:00
11:35 PM,32.0,32.0,100,29.87,7.0,Calm,Calm,-,N/A,,Overcast,0,2013-02-05 04:35:00
11:55 PM,32.0,32.0,100,29.87,3.0,Calm,Calm,-,N/A,,Overcast,0,2013-02-05 04:55:00